Location: Newark
(41.6500°N, 71.4833°W)
Time: 19:52:26
(UTC+00:00)

Courier 1B - Pass Details

Date: 25 January 2020
Orbit: 962 x 1209 km, 28.3° (Epoch: 19 February)

Event Time Altitude Azimuth Distance (km) Brightness Sun altitude
Rises 06:49:57 0° 217° (SW) 3,815 - -57.2°
Reaches altitude 10° 06:53:34 10° 200° (SSW) 2,911 - -56.7°
Maximum altitude 06:58:10 18° 159° (SSE) 2,417 - -56.0°
Drops below altitude 10° 07:02:55 10° 119° (ESE) 3,033 - -55.2°
Exits shadow 07:05:17 - 108° (ESE) 3,619 10.8 -54.8°
Sets 07:06:46 0° 102° (ESE) 4,037 11.1 -54.6°
